Location: Santa Cristina
(46.5667°N, 11.7167°E)
Time: 04:19:09
(UTC+00:00)

CZ-2C R/B - Pass Details

Date: 21 April 2021
Orbit: 501 x 566 km, 97.7° (Epoch: 10 May)

Event Time Altitude Azimuth Distance (km) Brightness Sun altitude
Rises 03:38:07 0° 6° (N) 2,640 6.8 -6.8°
Reaches altitude 10° 03:40:17 10° 359° (N) 1,758 5.7 -6.4°
Maximum altitude 03:43:50 40° 289° (WNW) 788 3.3 -5.9°
Drops below altitude 10° 03:47:26 10° 219° (SW) 1,778 4.9 -5.3°
Enters shadow 03:49:16 - 213° (SSW) 2,528 5.7 -5.0°
